www.pogodaiklimat.ru
ПОГОДА на Базе ВВС Дэвис-Монтан
Время
и дата
17:55 04.02
18:55 04.02
19:55 04.02
20:55 04.02
21:55 04.02
22:55 04.02
23:55 04.02
00:55 05.02
01:55 05.02
02:55 05.02
03:55 05.02
04:55 05.02
05:55 05.02
06:55 05.02
07:55 05.02
08:55 05.02
09:55 05.02
10:55 05.02
11:55 05.02
12:55 05.02
13:55 05.02
14:55 05.02
15:55 05.02
16:55 05.02
17:55 05.02
18:55 05.02
19:55 05.02
20:55 05.02
21:55 05.02
22:55 05.02
23:55 05.02
00:55 06.02
01:55 06.02
02:55 06.02
03:55 06.02
04:55 06.02
05:55 06.02
06:55 06.02
07:55 06.02
08:55 06.02
09:55 06.02
10:55 06.02
11:55 06.02
11:58 06.02
12:55 06.02
13:55 06.02
14:12 06.02
14:20 06.02
Ветер
(напр.,м/с)
Видим. Явления Облачность Т
(С)
Тd
(С)
f
(%)
Тe
(С)
Тes
(С)
Комфортность P
(гПа)
Po
(гПа)
Тmin
(С)
Tmax
(С)
R
(мм)
R24
(мм)
S
(см)
С 2 16 км ясно +21.1 -9.4 12 +20 +20 1021.9 923.7
СЗ 3 16 км ясно +17.1 -4.2 23 +17 +17 1022.8 924.3
З 2 16 км ясно +15.6 -2.4 29 +16 +16 1023.7 925.0
ЮЗ 3 16 км ясно +12.3 -2.0 37 +11 +11 1024.1 925.3
ЮВ 4 16 км ясно +9.4 -2.6 43 +7 +7 1024.2 925.6
ЮВ 5 16 км ясно +9.8 -4.2 37 +7 +7 1024.1 925.9 +9.4 +23.8
ЮВ 6 16 км ясно +9.2 -6.3 33 +6 +6 1023.6 925.6
Ю 3 16 км ясно +7.7 -5.7 38 +6 +6 1023.8 925.6
ЮВ 4 16 км ясно +6.9 -5.8 40 +4 +4 1023.8 925.6
ЮВ 4 16 км ясно +7.5 -5.9 38 +5 +5 1023.3 925.3
штиль 0 16 км ясно +6.5 -5.5 42 +6 +6 1023.3 925.3
ЮВ 3 16 км ясно +6.5 -5.8 41 +4 +4 1023.1 925.0 +5.6 +9.7
ЮВ 2 16 км ясно +5.7 -5.6 44 +4 +4 1022.6 924.3
Ю 4 16 км ясно +7.0 -6.7 37 +4 +4 1023.4 924.7
ЮВ 5 16 км ясно +8.3 -6.3 35 +5 +5 1023.7 925.0
Ю 4 16 км ясно +14.1 -6.2 24 +13 +14 1023.5 925.0
ЮВ 3 16 км ясно +18.2 -5.8 19 +18 +21 1023.0 924.7
штиль 0 16 км ясно +20.8 -6.0 16 +20 +28 1022.8 924.7 +5.5 +20.8
штиль 0 16 км ясно +23.1 -5.9 14 +21 +32 комфорт 1021.5 923.7
С 3 16 км ясно +23.9 -5.2 14 +22 +30 комфорт 1019.8 922.2
СЗ 4 16 км ясно +24.6 -6.7 12 +22 +29 комфорт 1018.8 921.3
СЗ 5 16 км ясно +24.3 -4.9 14 +22 +26 комфорт 1013.8 920.7
СЗ 8 16 км ясно +23.6 -4.6 15 +22 +23 комфорт 1014.0 920.7
СЗ 8 16 км ясно +21.9 -4.3 17 +21 +21 комфорт 1014.2 920.7 +20.9 +25.0
СЗ 6 16 км ясно +19.2 -5.0 19 +19 +19 1014.9 921.0
З 3 16 км ясно +17.2 -3.0 25 +17 +17 1015.6 921.6
штиль 0 16 км 2/0 6900 m
[Ci]
+16.1 -2.4 28 +16 +16 1015.9 921.9
ЮВ 3 16 км ясно +14.1 -2.8 31 +13 +13 1015.5 921.9
ЮВ 2 16 км ясно +12.5 -1.8 37 +12 +12 1015.2 921.9
ЮВ 4 16 км 2/0 6600 m
[Ci]
+9.5 -1.5 46 +7 +7 1019.5 921.9 +9.3 +21.8
ЮВ 3 16 км 8/0 5700 m
[Ac Ci]
+9.4 -1.3 47 +8 +8 1018.8 921.3
штиль 0 16 км 8/0 6900 m
[Ci]
+7.8 -1.7 51 +8 +8 1018.1 920.7
штиль 0 16 км ясно +6.7 -1.5 56 +6 +6 1017.4 920.1
штиль 0 16 км ясно +6.6 -2.0 54 +6 +6 1017.4 920.1
ЮВ 2 16 км ясно +4.2 -2.4 62 +2 +2 1017.4 919.7
ЮВ 4 16 км ясно +3.9 -3.6 58 0 0 1017.6 919.7 +3.9 +9.5
ЮВ 4 16 км ясно +3.7 -3.3 60 0 0 1017.5 919.4
ЮВ 5 16 км ясно +3.6 -3.7 59 -1 -1 1018.0 919.7
ЮЗ 3 16 км ясно +4.9 -3.4 55 +2 +2 1018.7 920.4
ЮЗ 2 16 км ясно +9.3 -4.3 38 +8 +9 1018.9 920.7
З 3 16 км ясно +11.4 -1.7 40 +10 +13 1019.6 921.3
З 3 16 км ясно +13.1 -1.3 37 +12 +17 1015.4 921.3 +3.0 +13.1
З 6 16 км ясно +14.9 -2.5 30 +13 +17 1014.2 920.4
З 6 16 км ясно +15.0 -3.0 29 +14 +17 1014.2 920.4
З 6
{9}
16 км ясно +15.4 -6.8 21 +14 +18 1013.4 919.4
З 6
{8}
16 км ясно +16.0 -8.3 18 +15 +19 1012.3 918.5
СЗ 8
{10}
16 км ясно +16.0 -9.0 17 +15 +16 1012.2 918.5
З 6
{11}
16 км ясно +16.0 -7.0 20 +15 +18 1012.7 918.8
Местоположение метеостанции Davis-Monthan Air Force Base: широта 32.1667 долгота -110.8833 высота над уровнем моря 824 м.
В архиве по умолчанию представлена погода на Базе ВВС Дэвис-Монтан за последние 1-2 суток. Обновление информации о фактической погоде в базе происходит ежечасно! Архивные данные за месяц целиком и за предыдущие месяцы Вы можете получить, выбрав интересующий диапазон дат из раскрывающегося списка и нажав кнопку "Ввод!".
Внимание! Архив погоды МЕТАР в базе сайта по станциям, не включенным в климатический монитор, хранится не более 60 дней. Нет смысла пытаться выбрать более раннюю дату.
*Определитесь, кто Вы:
Внимание! Время в таблицах - местное (без учета летнего времени). Для получения всемирного времени необходимо вычесть поправку, которая равна -7 ч.
Смотрите также архив погоды в соседних городах и на ближайших метеорологических станциях:
Партнеры нашего сайта:      
Пояснения к столбцам:
  • Ветер - указаны скорость ветра в м/с - средняя за 10 мин, порывы в срок и между сроками (в фигурных скобках) и направление, откуда дует ветер: С - северный,
  • СВ - северо-восточный, В - восточный, ЮВ - юго-восточный, Ю - южный, ЮЗ - юго-западный, З - западный, СЗ - северо-западный.
  • Видимость - горизонтальная дальность видимости в метрах или километрах. При видимости от 1 до 10 км при отсутствии осадков обычно наблюдается дымка, при ухудшении видимости до 1 км и менее - туман. В сухую погоду видимость может ухудшаться дымом, пылью или мглою.
  • Явления - указаны атмосферные явления, наблюдавшиеся в срок или в последний час перед сроком; фигурными скобками обозначены явления, наблюдавшиеся между сроками (за 1-3 часа до срока); квадратными скобками обозначены град или гололедные отложения с указанием их диаметра в мм.
  • Облачность - указаны через наклонную черту общая и нижняя облачность в баллах и высота нижней границы облаков в метрах; квадратными скобками обозначены формы облаков: Ci - перистые, Cs - перисто-слоистые, Cc - перисто-кучевые, Ac - высококучевые, As - высокослоистые, Sc - слоисто-кучевые, Ns - слоисто-дождевые, Cu - кучевые, Cb - кучево-дождевые. Подробнее классификацию облаков см. в Атласе облаков (PDF).
  • T - Температура воздуха - температура, измеренная на высоте 2 м над землей.
  • Td - Температура точки росы - температура, при понижении до которой содержащийся в воздухе водяной пар достигнет насыщения.
  • f - Относительная влажность воздуха - влажноcть воздуха, измеренная на высоте 2 м над землей.
  • Te - Эффективная температура - температура, которую ощущает одетый по сезону человек в тени. Характеристика душности погоды. При расчете учитывается влияние влажности воздуха и скорости ветра на теплоощущения человека.
  • Tes - Эффективная температура на солнце - температура, которую ощущает человек, с поправкой на солнечный нагрев. Характеристика знойности погоды. Зависит от высоты солнца над горизонтом, облачности и скорости ветра. Ночью, в пасмурную погоду, а также при ветре 12 м/с и более поправка равна нулю.
  • P - Атмосферное давление - приведенное к уровню моря атмосферное давление.
  • Po - Атмосферное давление - измеренное на уровне метеостанции атмосферное давление.
  • Tmin - Минимальная температура - минимум температуры воздуха на высоте 2 м над землей.
  • Tmax - Максимальная температура - максимум температуры воздуха на высоте 2 м над землей.
  • R - Количество осадков - Количество выпавших осадков за период времени, мм. При наведении курсора мыши на число - период времени, за который выпало указанное количество осадков.
  • R24 - Количество осадков - Количество выпавших осадков за 24 часа, мм.
  • S - Снежный покров - Высота снежного покрова, см. При наведении курсора мыши на число - состояние снежного покрова и степень покрытия местности в баллах.